WATER LEVELS

Guaranteed water level and forecast    Ústí nad Labem-Střekov

Guaranteed water level
175 cm
on 20.10.2021 more information
Forecast
175 cm
on 21.10.2021 07:00
Tendency
Rising
on 21.10.2021 metodika tendence
Forecast
193 cm
on 22.10.2021 07:00
(Source data ČHMÚ a Povodí Labe)

Ústí nad Labem

Date and time (UTC) H (cm) Q (m³/s)
20. 10. 2021 23:30 187 167
20. 10. 2021 23:00 187 167
20. 10. 2021 22:00 188 168
20. 10. 2021 21:00 188 168
20. 10. 2021 20:00 188 168
20. 10. 2021 19:00 186 165
20. 10. 2021 18:00 182 158
20. 10. 2021 17:00 181 156
20. 10. 2021 16:00 176 148
20. 10. 2021 15:00 177 150
20. 10. 2021 14:00 176 148
20. 10. 2021 13:00 175 146
20. 10. 2021 12:00 176 148
20. 10. 2021 11:00 176 148

H - water level, Q - discharge
more information

Mělník

Date and time (UTC) H (cm) Q (m³/s)
20. 10. 2021 23:30 268 -
20. 10. 2021 23:00 265 -
20. 10. 2021 22:00 261 -
20. 10. 2021 21:00 259 -
20. 10. 2021 20:00 258 -
20. 10. 2021 19:00 260 -
20. 10. 2021 18:00 265 -
20. 10. 2021 17:00 269 -
20. 10. 2021 16:00 270 -
20. 10. 2021 15:00 263 -
20. 10. 2021 14:00 262 -
20. 10. 2021 13:00 265 -
20. 10. 2021 12:00 260 -
20. 10. 2021 11:00 261 -

H - water level, Q - discharge
more information

Kostelec nad Labem

Date and time (UTC) H (cm) Q (m³/s)
20. 10. 2021 23:30 402 -
20. 10. 2021 23:00 403 -
20. 10. 2021 22:00 405 35
20. 10. 2021 21:00 404 40
20. 10. 2021 20:00 401 31
20. 10. 2021 19:00 403 23
20. 10. 2021 18:00 402 27
20. 10. 2021 17:00 402 27
20. 10. 2021 16:00 403 28
20. 10. 2021 15:00 403 33
20. 10. 2021 14:00 403 31
20. 10. 2021 13:00 402 26
20. 10. 2021 12:00 404 26
20. 10. 2021 11:00 403 32

H - water level, Q - discharge
more information

Přelouč

Date and time (UTC) H (cm) Q (m³/s)
20. 10. 2021 23:30 48 19.3
20. 10. 2021 23:00 54 23
20. 10. 2021 22:00 56 24
20. 10. 2021 21:00 48 19
20. 10. 2021 20:00 38 14
20. 10. 2021 19:00 51 21
20. 10. 2021 18:00 57 25
20. 10. 2021 17:00 55 23
20. 10. 2021 16:00 50 20
20. 10. 2021 15:00 50 20
20. 10. 2021 14:00 49 20
20. 10. 2021 13:00 49 20
20. 10. 2021 12:00 48 19
20. 10. 2021 11:00 48 19

H - water level, Q - discharge
more information

Praha-Chuchle

Date and time (UTC) H (cm) Q (m³/s)
20. 10. 2021 23:30 60 96
20. 10. 2021 23:00 60 96
20. 10. 2021 22:00 60 96
20. 10. 2021 21:00 60 96
20. 10. 2021 20:00 60 96
20. 10. 2021 19:00 59 92
20. 10. 2021 18:00 59 92
20. 10. 2021 17:00 59 92
20. 10. 2021 16:00 59 92
20. 10. 2021 15:00 59 92
20. 10. 2021 14:00 60 96
20. 10. 2021 13:00 60 96
20. 10. 2021 12:00 60 96
20. 10. 2021 11:00 60 96

H - water level, Q - discharge
more information

České Budějovice

Date and time (UTC) H (cm) Q (m³/s)
20. 10. 2021 23:30 100 18.2
20. 10. 2021 23:00 101 19
20. 10. 2021 22:00 101 18
20. 10. 2021 21:00 100 18
20. 10. 2021 20:00 102 19
20. 10. 2021 19:00 99 16
20. 10. 2021 18:00 102 18
20. 10. 2021 17:00 100 18
20. 10. 2021 16:00 100 19
20. 10. 2021 15:00 101 17
20. 10. 2021 14:00 100 17
20. 10. 2021 13:00 101 17
20. 10. 2021 12:00 100 17
20. 10. 2021 11:00 101 18

H - water level, Q - discharge
more information
Source data
Labe Basin Vltava Basin Povodí Moravy ČHMÚ